Location: Drouwen
(52.9559°N, 6.7974°E)
Time: 04:32:02
(UTC+00:00)

COSMOS 2428 - Pass Details

Date: 15 May 2026
Orbit: 844 x 855 km, 70.9° (Epoch: 6 June)

Event Time Altitude Azimuth Distance (km) Brightness Sun altitude
Rises 22:48:55 0° 326° (NW) 3,427 7.1 -17.5°
Reaches altitude 10° 22:51:26 10° 322° (NW) 2,485 6.1 -17.5°
Maximum altitude 22:56:56 52° 247° (WSW) 1,048 3.1 -17.7°
Enters shadow 22:59:33 29° 187° (S) 1,497 3.4 -17.7°
